Погода в Кургане

Погода в Кургане : погода сейчас, прогноз погоды и архив. Всё, что Вы хотите узнать о погоде в Кургане!

Хотите узнать прогноз погоды в Кургане? Тогда Вам сюда: Погода в Кургане

Поиск расширенной информации на нашем сайте:

Полезная информация:

Другие новости

Новости СМИ2

Главная страница сайта

Новости сайта

03.07.2017

Напоминаем, что на нашем специализированном сайте Метеоцентр.Азия вы можете получить высокодетализированные автоматические прогнозы погоды по пунктам России, СНГ и мира в авиационном формате (включающие направление и скорость ветра, видимость, явления погоды, количество и форму облачности, нижнюю и верхнюю границу облачности).

Рекомендуем:

Погода в Кургане - сегодня

Время (UTC), дата Ветер
(°,м/с) 
Видим.   Явления Облачность Т
(°С)
Тd
(°С)
f(%) Тe
(°С)
Pmin
(гПа)
dP
(гПа)
Po
(мм)
O2
(г/м3)
Тmin Tmax R s Состояние
почвы
09 15.09.19 210 (ЮЗ) 20000 м    5/5 1000 м 
[Sc]
+25.3 +4.6 26 +25  1013.3  -1.4  754  277           
12 15.09.19 210 (ЮЗ) 20000 м    3/3 1000 м 
[Cu med, cong]
+25.2 +3.4 24 +25  1012  -1.2  753  277           
15 15.09.19 тихо ()   10 км    ясно 
+16.6 +5.8 49 +17  1011.5  -0.8  752  285    +26.2       
18 15.09.19 180 (Ю) 10 км    ясно 
+13.6 +5.6 58 +15  1011.3  -0.2  752  288           
21 15.09.19 200 (Ю) 10 км    8/8 1000 м 
[Sc]
+15.2 +5.2 51 +16  1010.4  -0.8  751  286           
00 16.09.19 200 (Ю) 10 км    6/6 1000 м 
[Sc]
+15.3 +4.7 49 +16  1009.4  -1  750  286           
03 16.09.19 150 (ЮВ) 20000 м    10/0 средняя, верхняя 
[Ac trans|Ci fib]
+14.1 +5.6 57 +15  1008.3  -1  750  286  +11.4        сухая 
06 16.09.19 210 (ЮЗ) 20000 м  в посл. час ливневой дождь  10/5 1000 м кучево-дожд., средняя, верхняя 
[Cb cap|Ac trans|Ci sp]
+17.9 +7.4 50 +19  1007.2  -1  749  282           
09 16.09.19 220 (ЮЗ) 20000 м    10/5 1000 м кучево-дожд., средняя, верхняя 
[Cb cap|Ac trans|Ci sp]
+21.1 +5.1 35 +21  1005.1  -2  747  279           
12 16.09.19 120 (ЮВ) 2-12{12}  4000 м  гроза, ливневой дождь  10/6 1000 м кучево-дожд., средняя 
[Cb calv|Ac und]
+16.6 +9 61 +17  1004.3  -1  747  282           
15 16.09.19 230 (ЮЗ) 1{12}  4000 м  слаб. ливневой дождь{гроза}  10/8 1000 м кучево-дожд., средняя 
[Cb cap|Ac und]
+12.5 +7.1 70 +14  1006.4  2.1  748  287    +23.9     
18 16.09.19 250 (З) 10 км  {гроза, ливн. осадки}  3/0 средняя 
[Ac trans]
+9 +7.2 88 +10  1006.9  0.3  748  291           
21 16.09.19 тихо ()   10 км    6/0 верхняя 
[Ci fib]
+6.3 +5.2 93 +6  1006.5  -0.5  748  294           
00 17.09.19 200 (Ю) 10 км    10/0 средняя 
[Ac und]
+7.9 +6.8 93 +8  1005.6  -0.8  747  292           
03 17.09.19 200 (Ю) 20000 м    10/6 1000 м кучево-дожд., средняя, верхняя 
[Cb cap|Ac trans|Ci sp]
+9 +6.3 83 +8  1005  -0.5  747  290  +6.3    0.8    влажная 
06 17.09.19 200 (Ю) 20000 м  слаб. ливневой дождь  10/8 1000 м кучево-дожд., средняя 
[Cb cap|Ac und]
+10.9 +7.1 77 +11  1004.9  0.1  747  288           
09 17.09.19 200 (Ю) 4-10{11}  20000 м  {ливн. осадки}  3/0 средняя 
[Ac trans]
+15.7 +6.3 54 +16  1004.2  -0.6  747  283           
12 17.09.19 200 (Ю) 3{11}  20000 м  {ливн. осадки}  8/4 1000 м кучево-дожд., верхняя 
[Cb cap|Ci fib]
+16.4 +5.4 48 +17  1004.5  0.4  747  283           
15 17.09.19 190 (Ю) 10 км  {ливн. осадки}  6/0 средняя, верхняя 
[Ac trans|Ci fib]
+11.6 +6.9 73 +13  1005.8  1.1  748  288    +17.9       
18 17.09.19 170 (Ю) 10 км  {ливн. осадки}  3/0 средняя 
[Ac trans]
+8.7 +6.1 84 +10  1006.1  0.2  748  291           
21 17.09.19 тихо ()   10 км    10/0 средняя, верхняя 
[Ac trans|Ci fib]
+8.9 +5.5 79 +9  1005.3  -0.7  747  291           
00 18.09.19 200 (Ю) 10 км    10/3 1000 м кучево-дожд., средняя, верхняя 
[Cb cap|Ac trans|Ci fib]
+13.6 +7.2 65 +14  1004.5  -0.6  747  285           
03 18.09.19 200 (Ю) 20000 м    10/0 средняя, верхняя 
[Ac trans|Ci fib]
+14.4 +6.8 60 +15  1004.6  -0.1  747  285  +7.5        сухая 
06 18.09.19 тихо ()   20000 м    10/6 1000 м кучево-дожд., средняя, верхняя 
[Cb cap|Ac trans|Ci fib]
+16.9 +7.2 53 +17  1004.4  0.1  747  282           
09 18.09.19 тихо ()   20000 м    10/8 1000 м кучево-дожд., средняя 
[Cb cap|Ac trans]
+18 +7.8 51 +18  1003.5  -0.9  746  281           
Время (UTC), дата Ветер
(°,м/с) 
Видим.   Явления Облачность Т
(°С)
Тd
(°С)
f(%) Тe
(°С)
Pmin
(гПа)
dP
(гПа)
Po
(мм)
O2
(г/м3)
Тmin Tmax R s Состояние
почвы

Для получения пояснительной информации подведите курсор к названию столбца.

ПОГОДА в Кургане - архив

Всё, что Вы хотите узнать о погоде в Кургане - удобно и подробно!

Выберите нужную дату (начиная с 1 января 2018* года) и нажмите кнопку "Найти".
Будут отображены архивные сводки погоды по пункту Курган, начиная с указанной даты.


Отображать данные в формате CSV (для использования в таблицах Excel)


Внимание! Наш архив погоды предназначен исключительно для личного некоммерческого использования в познавательных целях. Если Вам необходимы официальные справки о состоянии погоды (для производственных, юридических, коммерческих и т.п. целей), обращайтесь в органы Росгидромета.

*Примечание: данная дата относится к архиву по метеостанциям СССР (Россия, СНГ, Балтия).
Архив по метеостанциям Зарубежной Европы и Азии (кроме Китая) хранится 10 дней, по другим регионам земного шара (Китай, Африка, Америка, Австралия, Океания) - 1 день.

Курган - район местоположения метеостанции


Название, широта, долгота, высота метеостанции:
Курган 55.5°ш. 65.4°д. 74 м над ур. моря [Российская Федерация]

Дополнительная информация

В oтличие oт бoльшинства пoгoдных сайтoв мы публикуем пoдрoбную метеoинфoрмацию в детальнoм прoфессиoнальнoм фoрмате.

Характеристики температуры и влажнoсти вoздуха измеряются на высoте 2 м в тени вдали oт зданий и деревьев.
Скoрoсть ветра измеряется на высoте 10 м (на урoвне рoста челoвека скoрoсть ветра ниже в 1.5-2 раза). Если метеoстанция нахoдится в гoрoде или в лесу, тo скoрoсть ветра занижена на 2-4 м/с пo сравнению с oткрытым местoм. Скoрoсть ветра над акватoриями крупных рек и oзёр, а также на вершинах хoлмoв на 2-5 м/с выше, чем в oбычных услoвиях.
Атмoсфернoе давление в разных тoчках местнoсти мoжет значительнo oтличаться oт давления на метеoстанции, в зависимoсти oт услoвий рельефа (при пoдъёме на 10 м давление пoнижается примернo на 1 мм рт.ст.).